Weather History for Morris, MN

Change the Weather History Date:

Tuesday, September 24, 2013

  Actual Average Record
Temperature  
Mean Temperature 64 °F -  
Max Temperature 75 °F 65 °F 82 °F (2012)
Min Temperature 53 °F 41 °F 28 °F (2000)
Degree Days  
Heating Degree Days 1    
Growing Degree Days 14 (Base 50)    
Moisture  
Dew Point 52 °F    
Average Humidity 73    
Maximum Humidity 94    
Minimum Humidity 38    
Precipitation  
Precipitation 0.00 in - - ()
Sea Level Pressure  
Sea Level Pressure 29.90 in    
Wind  
Wind Speed 7 mph (SE)    
Max Wind Speed 10 mph    
Max Gust Speed -    
Visibility 10 miles    
Events      
Averages and records for this station are not official NWS values.
T = Trace of Precipitation, MM = Missing Value Source: NWS Daily Summary

Daily Weather History Graph

Daily Weather History Graph

Search for Another Location

Airport:

Trip Planner

Search our weather history database for the weather conditions in past years. The results will help you decide how hot, cold, wet, or windy it might be!

Date:

Astronomy

Sep. 24, 2013 Rise Set
Actual Time 7:13 AM CDT 7:17 PM CDT
Civil Twilight 6:44 AM CDT 7:46 PM CDT
Nautical Twilight 6:09 AM CDT 8:21 PM CDT
Astronomical Twilight 5:33 AM CDT 8:56 PM CDT
Moon 10:20 PM CDT (9/24) 12:44 PM CDT (9/24)
Length of Visible Light 13h 02m
Length of Day
12h 03m
Waning Gibbous, 73% of the Moon is Illuminated
Sep 24
Waning Gibbous
Sep 26
Last Quarter
Oct 4
New
Oct 11
First Quarter
Oct 18
Full

Hourly Weather History & Observations

Time (CDT) Temp. Dew Point Humidity Pressure Visibility Wind Dir Wind Speed Gust Speed Precip Events Conditions
12:07 AM 59.0 °F 51.8 °F 77% 29.85 in 10.0 mi SE 9.2 mph - N/A   Clear
12:27 AM 57.2 °F 51.8 °F 82% 29.86 in 10.0 mi SSE 9.2 mph - N/A   Clear
12:47 AM 57.2 °F 51.8 °F 82% 29.86 in 10.0 mi SE 6.9 mph - N/A   Clear
1:07 AM 57.2 °F 51.8 °F 82% 29.86 in 10.0 mi SE 8.1 mph - N/A   Clear
1:27 AM 57.2 °F 51.8 °F 82% 29.86 in 10.0 mi SE 8.1 mph - N/A   Clear
1:47 AM 57.2 °F 51.8 °F 82% 29.86 in 10.0 mi SE 8.1 mph - N/A   Clear
2:07 AM 57.2 °F 51.8 °F 82% 29.86 in 10.0 mi SE 9.2 mph - N/A   Clear
2:27 AM 57.2 °F 51.8 °F 82% 29.86 in 10.0 mi SSE 10.4 mph - N/A   Clear
2:47 AM 57.2 °F 51.8 °F 82% 29.86 in 10.0 mi SSE 9.2 mph - N/A   Clear
3:07 AM 55.4 °F 50.0 °F 82% 29.86 in 10.0 mi SE 8.1 mph - N/A   Clear
3:27 AM 55.4 °F 50.0 °F 82% 29.86 in 10.0 mi SE 8.1 mph - N/A   Clear
3:47 AM 55.4 °F 50.0 °F 82% 29.87 in 10.0 mi SE 6.9 mph - N/A   Clear
4:07 AM 53.6 °F 50.0 °F 88% 29.87 in 10.0 mi SE 6.9 mph - N/A   Clear
4:27 AM 53.6 °F 50.0 °F 88% 29.87 in 10.0 mi SE 8.1 mph - N/A   Clear
4:47 AM 53.6 °F 50.0 °F 88% 29.87 in 10.0 mi SE 8.1 mph - N/A   Clear
5:07 AM 55.4 °F 50.0 °F 82% 29.87 in 10.0 mi SE 8.1 mph - N/A   Clear
5:27 AM 55.4 °F 51.8 °F 88% 29.87 in 10.0 mi SE 9.2 mph - N/A   Clear
5:47 AM 55.4 °F 50.0 °F 82% 29.88 in 10.0 mi SSE 9.2 mph - N/A   Clear
6:07 AM 55.4 °F 50.0 °F 82% 29.88 in 10.0 mi SSE 6.9 mph - N/A   Clear
6:27 AM 53.6 °F 50.0 °F 88% 29.88 in 10.0 mi SE 8.1 mph - N/A   Clear
6:47 AM 53.6 °F 50.0 °F 88% 29.88 in 10.0 mi SSE 5.8 mph - N/A   Clear
7:07 AM 53.6 °F 50.0 °F 88% 29.89 in 10.0 mi SE 8.1 mph - N/A   Clear
7:27 AM 53.6 °F 50.0 °F 88% 29.89 in 10.0 mi SE 6.9 mph - N/A   Scattered Clouds
7:47 AM 53.6 °F 50.0 °F 88% 29.89 in 10.0 mi SE 5.8 mph - N/A   Scattered Clouds
8:07 AM 53.6 °F 51.8 °F 94% 29.90 in 10.0 mi SE 5.8 mph - N/A   Scattered Clouds
8:27 AM 55.4 °F 51.8 °F 88% 29.90 in 10.0 mi SE 4.6 mph - N/A   Clear
8:47 AM 55.4 °F 51.8 °F 88% 29.90 in 10.0 mi SE 5.8 mph - N/A   Clear
9:07 AM 57.2 °F 51.8 °F 82% 29.91 in 10.0 mi SSE 9.2 mph - N/A   Clear
9:27 AM 57.2 °F 51.8 °F 82% 29.92 in 10.0 mi SSE 10.4 mph - N/A   Clear
9:47 AM 57.2 °F 51.8 °F 82% 29.93 in 10.0 mi SSE 6.9 mph - N/A   Clear
10:07 AM 57.2 °F 51.8 °F 82% 29.93 in 10.0 mi SSE 5.8 mph - N/A   Clear
10:27 AM 59.0 °F 51.8 °F 77% 29.93 in 10.0 mi South 5.8 mph - N/A   Clear
10:47 AM 60.8 °F 51.8 °F 72% 29.94 in 10.0 mi South 4.6 mph - N/A   Clear
11:07 AM 60.8 °F 53.6 °F 77% 29.94 in 10.0 mi South 4.6 mph - N/A   Clear
11:27 AM 62.6 °F 53.6 °F 72% 29.94 in 10.0 mi SSE 5.8 mph - N/A   Clear
11:47 AM 64.4 °F 53.6 °F 68% 29.94 in 10.0 mi SE 3.5 mph - N/A   Clear
12:07 PM 66.2 °F 53.6 °F 64% 29.94 in 10.0 mi SSE 4.6 mph - N/A   Clear
12:27 PM 69.8 °F 53.6 °F 56% 29.94 in 10.0 mi SW 4.6 mph - N/A   Clear
12:47 PM 69.8 °F 53.6 °F 56% 29.93 in 10.0 mi Calm Calm - N/A   Clear
1:07 PM 71.6 °F 51.8 °F 50% 29.92 in 10.0 mi ESE 5.8 mph - N/A   Clear
1:27 PM 71.6 °F 53.6 °F 53% 29.92 in 10.0 mi SSE 5.8 mph - N/A   Clear
1:47 PM 73.4 °F 53.6 °F 50% 29.92 in 10.0 mi SE 3.5 mph - N/A   Clear
2:07 PM 73.4 °F 51.8 °F 47% 29.92 in 10.0 mi East 4.6 mph - N/A   Clear
2:27 PM 73.4 °F 53.6 °F 50% 29.92 in 10.0 mi SSE 6.9 mph - N/A   Clear
2:47 PM 75.2 °F 51.8 °F 44% 29.91 in 10.0 mi South 3.5 mph - N/A   Clear
3:07 PM 75.2 °F 51.8 °F 44% 29.91 in 10.0 mi South 3.5 mph - N/A   Clear
3:27 PM 75.2 °F 51.8 °F 44% 29.91 in 10.0 mi SE 6.9 mph - N/A   Clear
3:47 PM 75.2 °F 51.8 °F 44% 29.90 in 10.0 mi SSE 5.8 mph - N/A   Clear
4:07 PM 75.2 °F 48.2 °F 38% 29.90 in 10.0 mi South 3.5 mph - N/A   Clear
4:27 PM 75.2 °F 51.8 °F 44% 29.90 in 10.0 mi South 5.8 mph - N/A   Clear
4:47 PM 75.2 °F 50.0 °F 41% 29.90 in 10.0 mi SSE 6.9 mph - N/A   Clear
5:07 PM 75.2 °F 51.8 °F 44% 29.90 in 10.0 mi SSE 3.5 mph - N/A   Clear
5:27 PM 73.4 °F 51.8 °F 47% 29.90 in 10.0 mi South 4.6 mph - N/A   Clear
5:47 PM 73.4 °F 51.8 °F 47% 29.90 in 10.0 mi South 5.8 mph - N/A   Clear
6:07 PM 73.4 °F 51.8 °F 47% 29.90 in 10.0 mi SSE 4.6 mph - N/A   Clear
6:27 PM 71.6 °F 53.6 °F 53% 29.90 in 10.0 mi SSE 5.8 mph - N/A   Clear
6:47 PM 69.8 °F 53.6 °F 56% 29.90 in 10.0 mi SE 6.9 mph - N/A   Clear
7:07 PM 66.2 °F 55.4 °F 68% 29.90 in 10.0 mi SE 5.8 mph - N/A   Clear
7:27 PM 62.6 °F 53.6 °F 72% 29.90 in 10.0 mi SE 6.9 mph - N/A   Clear
7:47 PM 62.6 °F 53.6 °F 72% 29.91 in 10.0 mi SE 5.8 mph - N/A   Clear
8:07 PM 60.8 °F 53.6 °F 77% 29.91 in 7.0 mi SE 6.9 mph - N/A   Clear
8:27 PM 60.8 °F 53.6 °F 77% 29.91 in 10.0 mi SE 5.8 mph - N/A   Clear
8:47 PM 57.2 °F 53.6 °F 88% 29.91 in 10.0 mi SE 5.8 mph - N/A   Clear
9:07 PM 57.2 °F 53.6 °F 88% 29.91 in 10.0 mi SE 5.8 mph - N/A   Clear
9:27 PM 57.2 °F 53.6 °F 88% 29.91 in 10.0 mi SE 5.8 mph - N/A   Clear
9:47 PM 55.4 °F 51.8 °F 88% 29.91 in 10.0 mi SE 4.6 mph - N/A   Clear
10:07 PM 55.4 °F 51.8 °F 88% 29.91 in 10.0 mi SE 5.8 mph - N/A   Clear
10:27 PM 55.4 °F 51.8 °F 88% 29.92 in 10.0 mi SSE 4.6 mph - N/A   Clear
10:47 PM 55.4 °F 51.8 °F 88% 29.92 in 10.0 mi SE 4.6 mph - N/A   Clear
11:07 PM 53.6 °F 51.8 °F 94% 29.92 in 10.0 mi SE 5.8 mph - N/A   Clear
11:27 PM 53.6 °F 51.8 °F 94% 29.92 in 10.0 mi SE 5.8 mph - N/A   Clear
11:47 PM 53.6 °F 51.8 °F 94% 29.92 in 10.0 mi SE 6.9 mph - N/A   Clear